[[{"header":{"parameterUnit":"m.s-1","parameterCategory":1,"la1":30.2992,"la2":30.254,"lo1":-89.0895,"lo2":-89.0443,"dy":0.0025,"dx":0.0025,"nx":19,"ny":19,"refTime":"2026-03-29T09:00:00:Z","depth":0,"parameterNumber":2,"parameterNumberName":"U-component_of_WINDS"},"data":[0,0,0,-7.7668,-7.7672,-7.7858,-7.7858,-7.8125,-7.8128,0,0,0,0,0,0,0,0,0,0,0,-7.7632,-7.7635,-7.7667,-7.7673,-7.7858,-7.7858,-7.8125,-7.8128,0,0,0,0,0,0,0,0,0,0,0,-7.7631,-7.7634,-7.7637,-7.7673,-7.7858,-7.7858,-7.8124,-7.7973,0,0,0,0,0,0,0,0,0,0,-7.7788,-7.7775,-7.7634,-7.7637,-7.7675,-7.7857,-7.7858,-7.7965,-7.7983,-7.8055,0,-7.8125,0,-7.8131,-7.8148,-7.8149,0,0,0,-7.7657,-7.7761,-7.7793,-7.7638,-7.7676,-7.7857,-7.777,-7.7975,-7.7994,-7.8078,-7.8129,-7.8138,-7.8136,-7.815,-7.8151,-7.8619,-7.8622,0,0,-7.7647,-7.7676,-7.778,-7.7807,-7.7782,-7.7764,-7.7776,-7.7986,-7.8043,-7.813,-7.8143,-7.814,-7.8152,-7.8154,-7.8617,-7.862,0,0,0,-7.7628,-7.7669,-7.7696,-7.7797,-7.7828,-7.777,-7.7783,-7.8033,-7.804,-7.8146,-7.8143,-7.8153,-7.8157,-7.8613,-7.8618,-7.8787,0,0,0,-7.7621,-7.7658,-7.7692,-7.7712,-7.7825,-7.7933,-7.7827,-7.8025,-7.8048,-7.8142,-7.8154,-7.816,-7.861,-7.8616,-7.8775,-7.8861,0,0,0,-7.7614,-7.7657,-7.7691,-7.7713,-7.7794,-7.7929,-7.7947,-7.8029,-7.8047,-7.8149,-7.8161,-7.8608,-7.8615,-7.8765,-7.8844,-7.899,0,0,0,-7.7613,-7.7839,-7.7694,-7.7945,-7.7793,-7.8034,-7.7946,-7.8124,-7.8232,-7.8155,-7.8611,-7.8617,-7.8762,-7.8833,-7.8979,-7.9116,-7.9177,0,0,-7.7913,-7.7876,-7.8021,-7.7897,-7.8172,-7.8004,-7.8303,-7.8374,-7.8357,-7.8533,-7.8544,-7.8779,-7.8843,-7.8988,-7.9513,-7.9562,0,0,0,-7.8126,-7.823,-7.8297,-7.8401,-7.8463,-7.8521,-7.8544,-7.8571,-7.8718,-7.8454,-7.8873,-7.891,-7.8994,-7.9057,-7.9098,-7.9167,-7.8649,-7.8649,-7.8648,-7.8588,-7.8556,-7.8794,-7.8785,-7.8888,-7.891,-7.8989,-7.9028,-7.8966,-7.9066,-7.9116,-7.9439,-7.9515,-7.9545,-7.9618,-7.9189,-7.9189,-7.919,-7.919,-7.9022,-7.9163,-7.9076,-7.9275,-7.924,-7.9406,-7.9437,-7.9387,-7.9535,-7.9398,-7.947,-7.9319,-7.9599,-7.966,-7.9203,-7.9201,-7.9199,-7.9198,-7.9197,-7.9317,-7.9379,-7.941,-7.9558,-7.9676,-7.9659,-7.9806,-7.9769,-7.9735,-7.9808,-7.9855,-7.9852,-7.9841,-7.9834,-7.9835,-7.9836,-7.9837,-7.9838,-7.9839,-7.961,-7.9639,-7.9768,-7.9854,-7.9916,-7.9993,-8.002,-8.008,-8.0136,-8.0097,-8.0098,-8.0023,-7.9635,-7.9535,-7.9856,-7.9853,-7.985,-7.9849,-7.9848,-8.0054,-7.9948,-8.0147,-8.021,-8.0307,-8.0425,-8.0379,-8.0504,-8.0549,-8.0622,-8.0534,-8.0254,-8.0212,-8.0179,-8.0096,-8.0542,-8.0542,-8.0542,-8.0542,-8.03,-8.0277,-8.0471,-8.0574,-8.0671,-8.0649,-8.0873,-8.0897,-8.0904,-8.0929,-8.0861,-8.0749,-8.0718,-8.0694,-8.065,-8.0572,-8.1129,-8.113,-8.113,-8.057,-8.0554,-8.0752,-8.0759,-8.0833,-8.0897,-8.1106,-8.1226,-8.1213,-8.1153,-8.0947,-8.0923,-8.0743,-8.0687,-8.0617,-8.055,-8.0405,0,0]},{"header":{"parameterUnit":"m.s-1","parameterCategory":1,"la1":30.2992,"la2":30.254,"lo1":-89.0895,"lo2":-89.0443,"dy":0.0025,"dx":0.0025,"nx":19,"ny":19,"refTime":"2026-03-29T09:00:00:Z","depth":0,"parameterNumber":3,"parameterNumberName":"V-component_of_WINDS"},"data":[0,0,0,2.1363,2.1363,2.1382,2.1382,2.1409,2.1409,0,0,0,0,0,0,0,0,0,0,0,2.136,2.136,2.1363,2.1363,2.1382,2.1382,2.1409,2.1409,0,0,0,0,0,0,0,0,0,0,0,2.1359,2.136,2.136,2.1363,2.1382,2.1382,2.1409,2.1394,0,0,0,0,0,0,0,0,0,0,2.1375,2.1374,2.136,2.136,2.1364,2.1382,2.1382,2.1393,2.1395,2.1402,0,2.141,0,2.141,2.1411,2.1412,0,0,0,2.1361,2.1373,2.1376,2.136,2.1364,2.1382,2.1373,2.1394,2.1396,2.1405,2.1411,2.1411,2.1411,2.1412,2.1412,2.1466,2.1466,0,0,2.136,2.1364,2.1375,2.1377,2.1375,2.1372,2.1374,2.1395,2.1401,2.1411,2.1412,2.1411,2.1412,2.1412,2.1466,2.1466,0,0,0,2.1359,2.1363,2.1366,2.1376,2.138,2.1373,2.1374,2.14,2.1401,2.1412,2.1412,2.1412,2.1412,2.1465,2.1466,2.1487,0,0,0,2.1358,2.1362,2.1365,2.1368,2.1379,2.139,2.1379,2.1399,2.1402,2.1412,2.1412,2.1413,2.1465,2.1466,2.1485,2.1495,0,0,0,2.1358,2.1362,2.1366,2.1368,2.1376,2.139,2.1392,2.14,2.1401,2.1412,2.1413,2.1465,2.1465,2.1484,2.1493,2.151,0,0,0,2.1358,2.1383,2.1366,2.1395,2.1376,2.1404,2.1391,2.1411,2.1423,2.1412,2.1465,2.1466,2.1484,2.1492,2.1509,2.1524,2.1532,0,0,2.1392,2.1387,2.1404,2.1389,2.1421,2.14,2.1435,2.1441,2.1438,2.1457,2.1458,2.1486,2.1493,2.151,2.1574,2.1579,0,0,0,2.1416,2.1427,2.1435,2.1447,2.1454,2.146,2.1462,2.1464,2.1481,2.1449,2.1497,2.1501,2.1511,2.1518,2.1523,2.1531,2.147,2.147,2.1469,2.1466,2.1464,2.1491,2.1491,2.1503,2.1506,2.1515,2.1519,2.151,2.1523,2.1527,2.1566,2.1575,2.1579,2.1587,2.1537,2.1537,2.1537,2.1537,2.1515,2.1531,2.1523,2.1546,2.1543,2.1563,2.1567,2.1561,2.1579,2.1562,2.157,2.1551,2.1585,2.1592,2.1538,2.1538,2.1538,2.1538,2.1538,2.1546,2.1553,2.1558,2.1577,2.1592,2.1591,2.1609,2.1606,2.1602,2.1611,2.1616,2.1615,2.1613,2.1614,2.1614,2.1614,2.1615,2.1615,2.1615,2.1576,2.1581,2.1597,2.1609,2.1618,2.1628,2.1634,2.1641,2.1649,2.1645,2.1645,2.1635,2.159,2.1577,2.1617,2.1616,2.1616,2.1616,2.1616,2.1623,2.1613,2.1637,2.1646,2.1661,2.1676,2.1673,2.169,2.1696,2.1705,2.1696,2.1663,2.1657,2.1653,2.1643,2.1697,2.1697,2.1697,2.1697,2.1648,2.1646,2.1672,2.1686,2.17,2.1701,2.1729,2.1734,2.1738,2.1741,2.1734,2.1721,2.1717,2.1713,2.1708,2.1698,2.1765,2.1765,2.1765,2.1676,2.1676,2.17,2.1706,2.1718,2.1728,2.1755,2.1771,2.1773,2.1768,2.1744,2.1741,2.172,2.1713,2.1704,2.1696,2.1678,0,0]}]]